Location: Basse du Laborieux
(48.1989°N, 4.8333°W)
Time: 02:26:59
(UTC+00:00)

Daily predictions for brighter satellites

Satellite Brightness Start Highest point End
(mag) Time Altitude Azimuth Time Altitude Azimuth Time Altitude Azimuth
Cosmos 1461 3.1 00:01:06 10° NW 00:05:15 69° NE 00:06:31 42° ESE
Cosmos 1867 4.0 00:05:01 39° SSE 00:06:06 44° ESE 00:11:17 10° NE
Nadezhda 2 Rocket 4.4 00:00:28 10° N 00:06:40 84° E 00:09:13 38° SSE
Cosmos 2221 Rocket 4.1 00:06:47 40° SE 00:07:36 46° E 00:11:49 10° NNE
Cosmos 1674 3.1 00:10:51 46° ESE 00:11:02 47° E 00:14:39 10° NNE
Cosmos 1238 Rocket 3.2 00:09:30 10° N 00:12:06 36° ENE 00:12:06 36° ENE
ATLAS CENTAUR R/B 1.9 00:08:36 10° NW 00:13:20 52° WSW 00:13:59 48° SSW
SL-19 R/B 4.0 00:17:33 61° NE 00:17:33 61° NE 00:20:18 10° N
Cosmos 2322 Rocket 3.6 00:15:32 10° WSW 00:20:34 33° NW 00:25:38 10° NNE
ATLAS 5 CENTAUR R/B 3.4 00:05:51 10° NW 00:21:40 82° NE 00:24:40 24° SE
CZ-4C R/B 2.9 00:14:46 10° NW 00:21:58 87° SW 00:27:53 22° SE
Cosmos 2333 Rocket 2.3 00:19:42 33° SW 00:22:21 74° WNW 00:28:03 10° NNE
Cosmos 2322 3.6 00:20:48 39° SSW 00:23:02 86° ESE 00:28:49 10° NNE
Cosmos 1378 Rocket 4.2 00:22:19 38° SE 00:23:14 43° E 00:27:27 10° NNE
Cosmos 1818 4.2 00:18:15 10° NW 00:23:16 38° WSW 00:24:11 35° SW
Cosmos 1844 Rocket 3.9 00:20:46 10° NW 00:25:19 26° WSW 00:26:32 24° SW
USA 215 3.4 00:21:51 10° NE 00:28:24 75° NNW 00:34:56 10° WSW
PSLV R/B 3.5 00:29:35 10° NNE 00:33:59 81° ESE 00:35:00 53° S
ALOS 2 3.9 00:38:34 25° WSW 00:39:13 26° W 00:42:55 10° NW
Cosmos 2151 Rocket 3.5 00:35:33 10° NNW 00:39:58 78° W 00:40:53 55° S
Cosmos 1300 Rocket 4.4 00:37:39 10° NNW 00:41:37 35° W 00:42:20 32° WSW
Cosmos 1745 Rocket 4.0 00:35:22 10° N 00:41:38 77° E 00:44:35 33° SSE
Cosmos 839 Rocket 4.3 00:36:08 10° NW 00:42:27 73° NE 00:49:12 13° SE
Okean 2 3.4 00:42:13 54° SW 00:42:55 66° W 00:47:01 10° N
USA 308 4.1 00:44:46 27° ESE 00:44:46 27° ESE 00:47:38 10° ENE
ADEOS Rocket 3.3 00:42:18 34° SW 00:44:10 46° W 00:49:55 10° NNW
Okean 2 Rocket 3.2 00:39:47 10° NNW 00:44:16 63° W 00:45:13 49° SSW
Cosmos 2219 Rocket 2.4 00:42:56 31° SW 00:45:38 64° WNW 00:51:13 10° NNE
Meteor 1-16 Rocket 4.3 00:43:28 10° NNW 00:49:27 89° E 00:52:02 36° SSE
Cosmos 1707 3.8 00:50:02 31° W 00:50:47 34° WNW 00:54:22 10° N
GP-B 4.1 00:52:16 10° NNE 00:56:27 39° E 00:58:07 28° SE
Lacrosse 5 3.6 00:58:31 18° SE 00:58:54 18° ESE 01:02:17 10° E
CZ-2D R/B 3.9 00:55:26 10° NE 00:59:37 23° E 01:02:28 15° SE
Cosmos 1300 3.2 00:56:46 10° N 01:00:29 51° ENE 01:01:27 40° SE
Cosmos 546 4.5 01:01:15 66° SSW 01:01:34 71° SSE 01:05:29 10° ENE
SL-14 R/B 3.3 01:02:27 54° SSE 01:03:06 67° E 01:06:57 10° NNE
ASTEX 1 3.8 00:58:40 10° N 01:03:27 53° WNW 01:05:07 36° SW
ERS-2 4.3 01:01:39 10° NNW 01:04:02 17° WNW 01:05:21 14° W
USA 267 3.5 01:02:14 32° S 01:04:44 45° SW 01:10:58 10° WNW
USA 305 3.1 01:07:08 48° SSE 01:07:19 48° SE 01:11:21 10° ENE
Cosmos 371 Rocket 3.3 01:06:03 43° S 01:07:33 71° ESE 01:12:24 10° NNE
NOSS 2-2 (C) 4.2 01:02:49 10° NW 01:07:50 75° SW 01:12:46 20° SSE
Cosmos 2150 Rocket 3.9 01:06:08 41° S 01:07:57 76° ESE 01:13:07 10° NNE
USA 229 DEB 3.9 01:02:01 10° NW 01:09:21 71° SW 01:15:06 20° SSE
USA 229 3.9 01:02:07 10° NW 01:09:26 72° SW 01:15:15 19° SSE
Cosmos 1048 Rocket 4.3 01:08:00 10° NNW 01:12:58 48° WSW 01:14:18 38° SSW
Cosmos 2237 Rocket 2.4 01:11:28 36° S 01:13:43 63° ESE 01:19:22 10° NNE
COSMOS 2428 3.2 01:12:17 26° WSW 01:15:20 55° WNW 01:20:56 10° NNE
Cosmos 494 Rocket 4.2 01:10:41 10° NNW 01:15:37 49° WSW 01:17:01 38° SSW
Cosmos 405 Rocket 3.1 01:18:03 43° WSW 01:18:41 49° WNW 01:22:23 10° N
Cosmos 304 Rocket 4.1 01:17:17 38° SSE 01:18:53 57° ESE 01:23:38 10° NNE
Cosmos 1437 Rocket 2.9 01:15:18 10° NNW 01:18:56 50° W 01:19:16 48° WSW
SL-16 R/B 3.5 01:15:20 10° SE 01:21:09 44° ENE 01:27:00 10° N
Lacrosse 5 rocket 3.5 01:21:54 12° ESE 01:21:54 12° ESE 01:23:27 10° E
Cosmos 1125 Rocket 3.4 01:20:00 37° SSW 01:22:05 81° WNW 01:27:20 10° NNE
Okean 1 Rocket 3.3 01:18:39 10° NNW 01:22:58 55° W 01:24:05 42° SW
Cosmos 1908 4.5 01:21:30 10° NNW 01:24:41 26° W 01:24:54 26° W
Cosmos 1953 2.7 01:21:54 10° NNW 01:25:47 48° W 01:26:26 43° SW
Cosmos 2360 Rocket 4.3 01:22:07 10° W 01:26:13 20° NW 01:30:20 10° N
SME Rocket 3.4 01:24:35 29° SE 01:26:35 70° ENE 01:31:46 10° NNW
Resurs 1-4 Rocket 3.0 01:24:08 10° NNE 01:29:04 39° E 01:31:56 22° SSE
Cosmos 1943 Rocket 2.9 01:26:35 10° NNW 01:32:10 52° ENE 01:37:41 10° SE
USA 290 4.1 01:32:42 20° W 01:33:30 22° WNW 01:36:08 10° N
NOSS 3-1 (A) 4.4 01:28:42 10° NW 01:35:50 45° WSW 01:40:38 24° S
MOZ.5/SAFIR/RUBIN 5/SL-8 3.7 01:33:59 34° S 01:36:03 80° WSW 01:40:49 10° NNW
Cosmos 1709 Rocket 3.9 01:30:01 10° NNW 01:36:08 70° W 01:39:18 30° S
Cosmos 1626 3.9 01:36:40 19° W 01:37:31 21° WNW 01:40:21 10° NNW
Cosmos 2315 Rocket 4.0 01:35:34 30° S 01:38:59 85° W 01:45:25 10° N
Cosmos 2278 Rocket 2.6 01:37:59 10° NW 01:43:19 43° WSW 01:45:23 31° SSW
EO 1 Delta rocket 3.9 01:39:05 10° N 01:43:44 74° WNW 01:46:02 32° SSW
ADEOS II 3.5 01:40:19 10° NE 01:44:54 30° E 01:48:40 14° SSE
IDEFIX/ARIANE 42P 4.3 01:41:22 10° NE 01:45:44 25° E 01:49:52 11° SSE
USA 306 2.7 01:47:34 35° WSW 01:49:15 86° SSE 01:53:27 10° ENE
Cosmos 2084 Rocket 3.6 01:49:15 38° SSE 01:50:10 46° SE 01:53:49 10° NE
USA 307 2.7 01:51:04 35° SW 01:52:44 81° SSE 01:56:56 10° ENE
Thor Agena Rocket 3.6 01:48:07 10° NNE 01:53:24 76° WNW 01:56:09 29° SSW
ERBS 1.9 01:54:54 64° SW 01:55:18 84° SE 01:58:22 10° NE
NPP 4.1 01:51:51 10° NNE 01:57:10 56° E 02:00:35 22° S
Cosmos 2369 Rocket 3.8 01:52:07 10° NNW 01:57:15 35° NE 02:02:22 10° ESE
SL-16 R/B 2.7 01:58:00 24° S 02:01:16 52° ESE 02:06:46 10° NE
Cosmos 1455 Rocket 3.2 01:56:53 10° NNW 02:01:18 62° W 02:03:14 31° SSW
CZ-4 R/B 3.9 01:57:31 10° NNE 02:02:11 72° ESE 02:04:41 27° S
Cosmos 1980 4.1 02:02:27 23° SW 02:05:51 54° WNW 02:11:25 10° NNE
Meteor 1-28 Rocket 4.4 02:03:36 11° SE 02:07:02 40° ENE 02:10:33 10° N
Cosmos 2333 Rocket 4.4 02:03:50 10° W 02:07:40 18° NW 02:11:32 10° N
COSMOS 2455 3.9 02:04:48 17° SSE 02:08:44 35° ESE 02:14:08 10° NE
Cosmos 332 Rocket 4.0 02:07:03 28° SW 02:09:28 62° WNW 02:14:15 10° NNE
CZ-4C R/B 4.1 02:04:08 10° WNW 02:10:05 25° WSW 02:12:59 21° SW
USA 215 4.3 02:04:50 10° ENE 02:10:58 44° N 02:17:05 10° WNW
Cosmos 1975 Rocket 3.5 02:16:47 27° SW 02:18:52 48° WNW 02:23:12 10° N
Meteor 2-10 Rocket 4.4 02:14:30 10° NNW 02:19:40 37° W 02:22:24 23° SW
Nadezhda 1 Rocket 4.5 02:15:05 14° SSE 02:20:34 59° E 02:26:45 10° NNE
Meteor 1-24 Rocket 3.7 02:17:04 23° SSW 02:20:37 80° W 02:26:07 10° N
UNK 3.7 02:19:10 18° SSE 02:22:38 82° WSW 02:27:17 10° NNW
USA 308 3.0 02:20:30 19° WSW 02:23:23 70° NNW 02:27:34 10° ENE
Cosmos 1455 2.0 02:21:23 10° N 02:25:07 83° W 02:27:23 22° S
Cosmos 1025 Rocket 3.4 02:23:55 26° SW 02:26:04 49° WNW 02:30:16 10° N
MOS 1 Rocket 3.0 02:23:22 17° SSE 02:26:41 87° WSW 02:31:02 10° NNW
YAOGAN 11 4.1 02:23:45 17° S 02:27:08 79° WSW 02:31:41 10° NNW
BREEZE-M DEB (TANK) 4.4 02:23:20 10° W 02:27:17 82° N 02:45:14 10° E
Cosmos 1271 Rocket 3.2 02:25:06 10° N 02:28:52 59° ENE 02:32:41 10° SSE
Cosmos 2219 Rocket 4.4 02:27:22 10° WNW 02:30:45 16° NW 02:34:10 10° N
Cosmos 1269 Rocket 4.4 02:26:53 10° NNW 02:31:55 46° WSW 02:35:29 18° S
CZ-2D R/B 2.4 02:34:45 10° N 02:40:02 58° WNW 02:43:47 19° SW
Lacrosse 5 1.9 02:37:42 20° SW 02:41:13 80° SE 02:46:21 10° NE
Meteor 2-5 Rocket 4.2 02:38:06 19° SW 02:41:58 49° WNW 02:47:28 10° N
USA 305 3.6 02:42:50 10° W 02:46:55 51° NNW 02:51:00 10° ENE
Cosmos 1544 Rocket 4.2 02:43:28 10° NNW 02:47:35 39° W 02:50:15 19° SSW
Cosmos 2154 Rocket 4.0 02:42:57 10° NNW 02:49:18 74° W 02:55:34 10° S
SAR-Lupe-2 4.0 02:52:37 10° N 02:56:07 49° WNW 02:58:25 19° SW
Cosmos 1943 4.3 02:51:08 10° S 02:56:22 39° ESE 03:01:36 10° NE
AQUA 4.1 02:52:20 10° N 02:57:01 57° WNW 03:00:42 16° SW
Helios 1A 3.0 02:53:26 11° S 02:57:21 61° WSW 03:01:34 10° NNW
Cosmos 2237 Rocket 3.6 02:53:24 10° WSW 02:58:14 28° NW 03:03:07 10° NNE
Lacrosse 5 rocket 1.2 02:57:25 19° SW 03:00:09 76° SE 03:04:17 10° NE
Cosmos 1140 Rocket 4.1 02:57:00 10° NNW 03:02:13 60° ENE 03:07:24 10° SE
SL-16 R/B 3.1 02:59:47 13° SSW 03:04:49 38° W 03:10:35 10° NNW
Resurs 1-4 Rocket 3.1 03:04:07 10° N 03:08:48 34° WNW 03:13:01 12° SW
Cosmos 1726 Rocket 4.0 03:08:13 10° N 03:12:38 66° ENE 03:17:00 10° SSE
Cosmos 1703 3.3 03:11:07 13° SSW 03:14:32 64° W 03:18:27 10° N
Cosmos 1943 Rocket 3.1 03:10:49 10° NW 03:15:37 29° WSW 03:20:24 10° SSW
Cosmos 2297 4.3 03:10:55 10° NW 03:16:08 36° WSW 03:21:19 10° S
Cosmos 2263 4.2 03:10:49 10° NNW 03:16:32 89° W 03:22:16 10° SSE
NOSS 3-3 (A) 4.4 03:13:34 10° SSW 03:18:59 55° ESE 03:25:17 10° NE
NOSS 3-3 (C) 4.4 03:13:40 10° SSW 03:19:06 54° ESE 03:25:23 10° NE
ADEOS II 2.7 03:19:45 10° N 03:24:43 44° WNW 03:29:36 10° SW
IDEFIX/ARIANE 42P 3.0 03:20:27 10° N 03:25:34 51° WNW 03:30:38 10° SW
ARIANE 5 R/B 4.1 03:22:52 10° NNE 03:27:26 32° E 03:31:55 10° SSE
USA 306 4.1 03:25:11 10° W 03:29:08 40° N 03:33:06 10° ENE
CBERS-1 4.2 03:25:23 10° NNE 03:30:32 76° ESE 03:35:39 10° S
ERBS 4.2 03:28:28 10° WNW 03:30:58 22° NNW 03:33:27 10° NE
Cosmos 292 Rocket 4.2 03:26:40 11° SW 03:31:10 52° WNW 03:35:53 10° NNE
USA 307 4.0 03:28:39 10° W 03:32:38 41° N 03:36:37 10° ENE
Cosmos 2218 Rocket 4.1 03:28:09 10° N 03:34:24 84° E 03:40:43 10° S
EO 1 Del DPAF 4.3 03:33:11 10° N 03:36:12 27° WNW 03:39:12 10° SW
DNEPR-1 R/B 4.1 03:33:01 10° SSW 03:37:08 54° ESE 03:41:42 10° NE
MOS 1-B Rocket 3.8 03:32:51 10° SSE 03:38:27 78° WSW 03:44:17 10° NNW
Cosmos 2228 3.8 03:35:15 10° NNW 03:39:13 35° W 03:43:08 10° SSW
Meteor 1-21 Rocket 4.3 03:34:48 10° SSW 03:40:24 65° WNW 03:45:57 10° N
Cosmos 2056 Rocket 4.4 03:35:27 10° S 03:40:25 48° ESE 03:45:29 10° NNE
DEBRIS 3.6 03:30:20 10° WNW 03:40:44 80° SSW 03:43:57 10° ESE
Cosmos 2369 Rocket 2.5 03:36:06 10° NW 03:41:24 44° WSW 03:46:40 10° S
Cosmos 1892 3.8 03:38:07 10° SSE 03:41:43 43° E 03:45:19 10° NNE
IRS-1D 3.8 03:37:00 10° N 03:42:16 60° WNW 03:47:26 10° SSW
Cosmos 2251 Rocket 4.0 03:40:35 10° NW 03:45:26 39° WSW 03:50:18 10° S
SL-16 R/B 3.4 03:40:36 10° WSW 03:45:38 32° NW 03:50:43 10° NNE
Cosmos 2058 Rocket 3.1 03:43:17 10° N 03:47:43 88° E 03:52:04 10° S
Gblst 52 Del rocket 4.2 03:43:13 10° WNW 03:48:55 88° NNE 03:54:25 10° ESE
Cosmos 1656 Rocket 3.9 03:45:13 10° NW 03:50:23 46° WSW 03:55:31 10° S
Cosmos 2181 Rocket 4.0 03:45:23 10° S 03:51:38 83° W 03:57:50 10° N
USA 215 4.5 03:47:06 10° E 03:53:14 45° N 03:59:23 10° WNW
